Regional Weather Roundup
Issued by NWS

Home | Current Version | Previous Version | Text Only | Print | Product List | Glossary Off
Versions: 1 2 3 4 5 6 7 8 9 10 11 12 13 14 15 16 17 18 19 20 21 22 23 24 25 26 27 28 29 30 31 32 33 34 35 36 37 38 39 40 41 42 43 44 45 46 47 48 49 50

000
ASUS45 KCYS 280510
RWRWY

WYOMING REGIONAL WEATHER ROUNDUP
NATIONAL WEATHER SERVICE CHEYENNE WY
1100 PM MDT MON APR 27 2015

NOTE:  "FAIR" INDICATES FEW OR NO CLOUDS BELOW 12,000 FEET
WITH NO SIGNIFICANT WEATHER AND/OR OBSTRUCTIONS TO VISIBILITY.

WYZ001-280600-
YELLOWSTONE NATIONAL PARK

CITY           SKY/WX    TMP DP  RH WIND       PRES   REMARKS
LK YELLOWSTONE   N/A     29  23  78 VRB5      30.37R WCI  24
W YELLOWSTONE  NOT AVBL

$$
WYZ002>013-054>058-071-098>099-280600-
NORTHERN WYOMING

CITY           SKY/WX    TMP DP  RH WIND       PRES   REMARKS
JACKSON        FAIR      39  30  70 N3        30.31R
CODY           CLOUDY    46  37  71 S7        30.31S
GREYBULL       FAIR      45  33  63 E7        30.30R
WORLAND        FAIR      42  35  76 SE8       30.31R
SHERIDAN       FAIR      37  32  82 SW3       30.31R
BUFFALO        FAIR      39  32  76 W6        30.33S WCI  35
GILLETTE       FAIR      39  34  82 CALM      30.32S
HULETT         FAIR      36  34  93 E3        30.34S
NEWCASTLE      CLOUDY    45  37  76 N5        30.34R

$$
WYZ014>020-022>026-101>103-280600-
CENTRAL WYOMING

CITY           SKY/WX    TMP DP  RH WIND       PRES   REMARKS
BIG PINEY      FAIR      41  33  73 S10       30.33R
PINEDALE       CLOUDY    41  34  75 SE3       30.34R
DUBOIS         CLOUDY    37  32  81 CALM      30.35R
LANDER         FAIR      40  33  76 W9        30.32S WCI  34
RIVERTON       FAIR      42  34  73 W7        30.33S
CASPER         CLOUDY    43  35  73 E5        30.35S
DOUGLAS        CLOUDY    44  38  79 CALM      30.36S

$$
WYZ021-027>030-104>119-280600-
SOUTHERN WYOMING

CITY           SKY/WX    TMP DP  RH WIND       PRES   REMARKS
EVANSTON       FAIR      42  30  62 E7        30.30R
KEMMERER       FAIR      41  32  70 CALM      30.32R
FORT BRIDGER   CLEAR     39  34  81 S9        30.33S WCI  33
ROCK SPRINGS   FAIR      38  33  82 NE14      30.32R WCI  30
DIXON          FAIR      41  35  79 E7        30.30S
RAWLINS        CLOUDY    40  34  79 NE12      30.33R WCI  33
SARATOGA       CLOUDY    36  34  93 W7        30.31S WCI  30
LARAMIE        CLOUDY    37  31  78 SE7       30.34S WCI  32
CHEYENNE       CLOUDY    40  36  86 N3        30.35S
TORRINGTON     CLOUDY    43  39  86 N5        30.35R
PINE BLUFFS    CLOUDY    43  41  93 NW7       30.35R

$$



USA.gov is the U.S. government's official web portal to all federal, state and local government web resources and services.